Terminal Aerodrome Forecast
Issued by NWS Charleston, WV

Current Version | Previous Version | Text Only | Print | Product List | Glossary Off
Versions: 1 2 3 4 5 6 7 8 9 10 11 12 13 14 15 16 17 18 19 20 21 22 23 24 25 26 27

369
FTUS41 KRLX 261723
TAFPKB
TAF
KPKB 261723Z 2618/2718 22008KT P6SM VCTS OVC040CB
     FM262100 19006KT P6SM SHRA VCTS OVC050CB
      TEMPO 2621/2701 4SM SHRA OVC015
     FM270300 18005KT 6SM SHRA BR BKN050
     FM270700 22005KT P6SM OVC035
     FM270900 24004KT P6SM OVC008
     FM271700 23005KT P6SM BKN200=

USA.gov is the U.S. government's official web portal to all federal, state and local government web resources and services.